Theta_e
330 327 329 333 335 342 342 342 342 336 327 326 325 329 332 332 332 334 338 341 342 344 344 343 342 342 341 339 335 333 333 334 335 336 338 340 337 336 339 340 341 329 324
327 325 324 328 331 337 342 342 342 338 328 327 326 327 330 333 333 333 334 337 340 343 345 342 343 343 342 341 340 339 337 337 336 337 338 341 345 337 338 340 339 332 326
330 325 324 325 328 332 340 342 342 339 332 330 329 327 327 331 334 335 336 338 341 342 339 341 342 342 342 339 338 337 337 338 338 337 338 339 343 347 339 338 338 341 335
348 329 326 324 326 329 333 339 340 339 337 337 337 335 330 328 330 334 335 335 336 338 341 341 341 340 339 338 337 336 335 334 334 334 333 335 345 347 347 340 339 342 344
353 337 328 326 326 327 328 329 332 335 337 338 337 335 333 330 330 333 335 335 337 338 339 338 338 338 337 336 336 338 338 337 336 334 331 332 343 346 348 345 342 342 344
346 338 337 331 328 326 327 327 327 329 330 331 331 332 333 332 333 333 334 335 336 336 335 335 335 334 334 335 335 334 335 337 337 335 333 333 338 341 348 347 343 343 343
349 337 337 338 336 330 328 327 327 328 329 329 330 329 329 329 329 329 330 330 330 331 331 332 332 332 332 333 334 334 333 333 333 333 332 330 335 335 340 347 343 344 344
349 337 332 333 336 338 337 335 333 333 334 335 335 336 336 336 334 333 334 334 332 333 333 335 339 339 336 333 332 332 332 333 333 333 332 331 328 334 337 341 344 345 345
346 330 330 333 334 336 337 338 338 338 338 338 338 337 337 337 339 339 345 347 350 348 343 343 342 339 343 340 339 338 337 335 333 333 334 334 333 331 336 339 343 345 344
347 348 344 345 334 337 338 336 336 336 338 336 337 331 332 337 336 346 347 339 339 338 338 339 338 337 339 342 342 342 342 342 341 338 335 335 334 335 335 336 340 346 344
348 348 351 350 347 333 330 332 333 335 331 330 325 328 326 328 331 328 327 330 333 331 328 332 332 335 340 342 338 341 342 347 348 347 343 337 337 339 338 339 339 341 341
338 348 352 350 348 333 329 332 333 334 330 326 321 323 326 327 324 321 324 323 324 324 323 322 323 323 323 322 322 323 323 328 335 344 345 345 344 344 341 340 338 339 339
328 328 327 328 333 330 328 329 327 328 327 325 324 322 326 327 323 326 324 323 325 323 324 323 323 322 322 321 323 322 320 321 323 328 341 345 347 347 345 342 340 339 339
327 327 327 326 326 326 326 326 326 326 326 325 326 325 323 323 325 323 324 323 326 324 325 324 325 325 322 325 324 323 323 322 321 320 322 325 329 335 341 343 340 342 344
327 327 325 326 327 327 325 325 327 327 326 328 327 327 327 327 327 326 326 324 325 324 326 326 325 325 323 325 324 324 324 323 323 322 321 320 321 323 331 339 340 341 339
329 329 327 326 327 326 326 328 329 328 328 328 329 329 328 328 328 328 327 326 326 326 327 326 326 325 325 324 323 324 323 321 321 322 321 321 321 320 323 333 337 343 341
328 328 329 330 331 330 330 330 328 330 329 328 328 328 329 329 329 328 328 328 328 328 328 328 328 327 326 325 323 321 322 323 322 321 320 319 317 317 318 319 336 338 341
330 330 331 331 330 330 332 332 330 330 330 330 330 330 330 330 330 330 330 331 330 331 330 329 328 326 324 323 322 322 320 320 320 320 319 318 318 320 320 322 322 331 342
330 330 331 332 333 333 335 335 334 332 331 332 332 332 329 329 330 329 328 327 327 326 325 323 322 321 320 319 319 319 319 319 319 319 320 320 319 319 320 321 322 322 327
332 332 332 333 334 335 335 335 337 337 335 332 331 329 329 327 324 323 321 320 318 317 318 319 318 318 317 318 317 318 319 318 318 318 319 319 319 320 320 318 318 319 320
333 333 333 333 334 335 339 339 337 334 332 331 329 326 323 322 320 318 315 314 316 317 317 316 315 313 313 313 313 314 314 314 314 319 318 319 320 320 321 321 321 320 320
333 333 334 335 341 340 338 333 333 328 327 326 325 322 320 318 315 313 315 315 313 312 312 312 312 312 311 311 311 310 311 312 313 314 314 314 314 315 319 318 321 323 322
334 335 338 338 336 334 330 328 327 323 322 321 318 317 315 313 314 314 313 312 311 310 309 309 308 309 309 309 308 309 312 313 311 311 311 312 313 314 314 316 322 322 323
339 337 334 332 330 326 325 322 320 319 318 317 315 314 314 314 313 311 311 310 308 308 307 306 306 307 308 308 308 308 309 309 311 312 311 312 312 314 314 315 317 320 323
335 333 331 329 326 323 321 319 317 316 315 313 314 313 312 311 309 308 308 307 306 306 306 306 306 306 306 307 306 307 307 307 308 309 311 311 310 310 310 311 313 317 324
333 332 328 324 320 319 317 315 314 313 313 313 311 309 307 306 306 306 306 305 306 306 305 305 305 305 305 305 306 306 306 307 308 309 310 309 308 309 309 310 313 315 325
Wind_Speed
11 15 13 13 14 13 12 12 11 12 11 11 11 10 11 11 11 11 10 9 9 9 8 8 7 7 6 6 5 5 5 5 5 5 5 5 6 8 8 8 6 6 6
18 16 14 13 13 13 12 11 11 11 11 11 10 9 9 9 8 8 7 6 5 5 4 4 4 4 4 4 4 3 3 3 4 3 3 1 2 4 5 6 9 4 5
20 16 14 12 12 12 12 12 11 10 10 9 9 8 7 6 6 5 5 4 3 2 3 4 3 3 3 3 4 4 4 5 5 5 5 6 7 7 5 7 5 5 4
18 15 14 12 12 12 12 11 10 10 9 8 8 6 6 5 4 3 2 1 1 2 3 4 4 5 5 6 6 6 6 7 8 9 9 10 9 14 14 9 8 4 2
15 13 14 12 11 11 11 10 10 9 8 7 6 5 4 3 2 0 1 2 3 5 6 7 7 8 9 9 9 9 10 11 11 12 12 11 10 13 24 17 13 9 4
15 14 13 12 11 10 9 9 9 8 7 6 5 4 3 2 1 2 3 5 6 8 9 9 10 11 12 12 13 13 14 14 15 15 15 12 15 17 19 22 17 13 8
13 13 12 11 10 10 9 8 7 6 5 4 3 3 2 3 4 5 6 8 9 10 11 12 13 14 15 16 17 17 18 18 19 20 19 17 18 18 19 26 22 17 13
12 12 12 11 10 9 8 7 6 6 5 4 4 4 5 5 5 6 7 9 10 11 12 13 15 18 19 19 21 22 22 22 23 23 23 22 20 20 20 22 26 21 17
14 15 14 13 12 11 10 9 9 8 8 8 8 9 8 9 8 6 7 9 10 12 15 16 17 19 21 22 23 24 25 26 27 29 29 28 26 21 23 27 29 28 23
17 15 15 15 16 15 14 14 15 15 12 11 8 11 14 11 13 8 8 12 13 14 16 16 19 22 21 20 22 25 28 29 30 32 33 35 34 31 29 29 26 31 26
19 14 14 14 15 15 13 13 12 12 11 10 11 11 10 12 11 13 13 11 13 13 16 18 20 21 18 20 24 25 26 28 30 32 33 34 34 32 30 33 31 32 32
24 22 14 14 15 11 10 12 11 10 9 11 12 13 11 10 10 9 8 11 13 12 14 16 14 15 16 22 22 23 24 25 27 29 30 31 32 31 30 32 33 37 37
25 18 15 16 18 13 13 15 12 9 6 7 8 10 9 7 9 9 9 7 12 13 15 16 18 20 23 27 26 29 30 29 25 24 27 32 35 34 39 38 38 38 43
26 18 12 17 19 17 18 15 12 10 6 2 3 4 6 7 7 8 8 9 10 12 14 16 17 18 23 21 27 30 28 33 33 30 29 29 31 31 29 40 40 35 33
30 20 15 14 14 11 9 9 10 6 4 2 6 1 8 9 9 10 11 10 11 11 15 16 20 23 25 25 31 30 31 30 30 33 36 36 35 35 34 32 36 34 29
31 26 17 16 12 10 9 8 4 2 1 2 3 7 8 8 10 12 12 12 13 15 18 21 23 26 24 33 33 29 31 36 36 29 32 37 39 35 30 32 34 39 39
29 22 18 15 13 9 8 7 5 3 4 9 10 12 12 13 14 15 15 15 18 18 23 23 23 26 35 30 30 37 33 31 33 37 37 42 45 46 44 38 34 38 43
24 22 17 17 15 10 9 6 4 5 8 13 12 12 15 17 13 13 14 16 19 19 22 27 24 19 20 24 26 30 34 38 36 35 35 37 35 36 37 37 33 32 40
19 16 13 10 8 9 6 3 5 11 13 17 15 10 12 12 10 10 13 15 16 18 19 21 24 26 27 26 29 32 32 32 33 32 33 31 35 39 36 36 37 34 33
21 16 13 10 7 2 4 5 9 13 10 11 12 14 13 13 16 19 23 25 27 29 27 25 26 25 22 21 22 24 25 28 28 31 34 38 37 39 39 41 41 42 38
29 26 21 14 7 6 2 3 7 14 14 14 14 12 18 20 25 28 32 30 23 19 16 14 18 25 24 24 26 25 27 28 31 24 27 21 23 24 29 38 42 42 42
33 28 20 14 13 10 5 5 6 10 9 11 14 20 23 28 32 30 21 19 20 23 20 19 21 23 19 15 14 23 8 14 22 25 26 29 30 31 28 34 32 33 39
29 22 21 19 14 11 8 4 7 10 14 19 24 26 29 29 24 17 22 21 21 22 23 23 23 20 21 19 19 11 5 5 13 26 28 31 31 28 33 31 26 30 34
30 30 28 21 16 14 13 14 15 14 16 19 24 25 25 19 17 23 23 23 26 28 29 28 24 23 20 20 18 19 21 22 6 9 17 23 29 22 25 29 32 37 36
33 28 22 20 18 16 16 15 16 16 16 22 20 23 15 24 30 29 24 28 31 30 27 24 22 22 23 21 21 20 21 22 23 9 11 13 24 24 23 26 28 33 43
31 28 25 23 20 17 16 16 16 17 19 21 20 23 26 27 24 22 25 32 24 25 24 25 24 24 24 25 25 24 22 15 12 10 7 13 17 25 22 24 23 27 34
Wind_Direction
112 112 105 93 89 97 100 98 91 86 93 92 94 96 97 99 102 106 106 103 93 85 74 68 65 59 55 54 54 45 37 40 44 46 54 86 93 109 111 98 97 78 81
124 115 106 98 95 95 105 102 100 95 100 100 97 97 97 100 100 103 106 108 105 91 61 47 41 34 31 27 20 16 5 354 353 353 344 353 163 147 140 125 104 95 83
115 110 106 105 98 96 102 107 103 98 99 100 101 98 103 105 104 101 97 100 99 46 14 8 359 353 348 344 336 330 320 312 307 303 294 284 263 241 201 176 174 116 104
108 111 110 109 104 101 100 101 102 103 104 102 97 97 105 116 116 112 106 97 26 339 338 336 332 327 322 317 312 306 299 294 293 291 287 282 261 256 234 215 206 185 154
109 118 115 112 110 108 107 105 105 104 103 102 96 95 97 105 116 123 293 295 302 307 311 314 311 309 306 303 301 297 293 290 288 286 289 284 272 278 240 226 214 218 215
108 122 119 119 118 116 111 108 103 100 99 95 92 87 83 83 39 306 296 298 303 305 306 305 304 304 303 302 300 297 292 289 286 284 284 272 281 284 246 227 220 215 224
111 119 120 119 119 119 114 111 106 101 92 84 70 46 14 348 330 312 307 305 305 304 304 304 304 301 297 295 294 292 289 287 284 282 279 274 268 275 262 243 226 222 230
116 120 119 118 118 115 112 107 99 91 81 63 43 18 354 341 319 311 318 313 308 308 309 312 311 307 300 296 292 288 286 284 280 278 278 274 268 263 268 250 231 232 237
115 125 125 120 117 109 103 96 87 77 71 60 54 35 14 348 335 323 333 328 329 333 330 323 319 319 308 301 298 294 289 284 280 278 275 273 268 255 264 259 239 233 237
129 121 125 110 112 98 89 91 89 83 77 58 43 23 19 29 16 343 333 340 331 329 330 327 324 322 318 316 308 302 298 294 283 279 278 275 273 266 253 252 253 236 238
140 138 135 124 123 106 86 97 102 89 69 47 30 46 23 32 45 34 15 5 352 345 334 331 333 332 326 319 322 321 322 305 297 289 282 279 280 275 261 259 254 245 240
124 147 161 148 153 124 107 113 105 107 81 55 57 55 48 44 20 7 359 353 358 357 357 351 343 338 346 333 327 322 320 322 318 298 293 284 282 277 268 255 257 258 244
117 117 107 99 160 150 122 123 109 122 115 57 54 63 61 44 23 32 3 21 355 338 339 337 323 319 325 327 322 320 315 311 307 309 302 290 281 268 268 256 248 251 253
117 118 122 107 108 106 106 117 115 132 144 58 137 76 63 16 356 358 345 346 332 324 321 318 316 315 320 307 308 309 311 309 308 304 301 298 298 296 295 259 252 249 250
123 135 138 130 118 117 123 121 103 100 79 31 188 332 325 317 300 298 302 299 305 302 312 308 302 306 314 308 308 304 303 301 303 303 301 301 300 296 294 293 261 250 241
138 144 147 144 143 150 140 137 124 105 9 343 239 299 289 281 270 280 277 280 289 293 294 298 298 304 294 309 300 300 301 298 296 293 296 295 295 295 297 289 273 261 248
146 148 156 161 164 166 154 157 179 238 256 284 274 276 286 287 291 290 284 269 291 294 294 296 300 296 300 295 300 296 296 298 297 294 292 294 291 290 287 282 276 264 259
146 149 164 172 180 179 174 196 228 253 270 284 286 284 286 300 302 305 300 306 308 304 303 309 313 315 317 310 305 299 299 292 290 292 293 288 288 288 289 288 279 276 264
164 168 176 159 177 171 180 205 282 297 288 290 304 324 349 349 340 336 345 336 328 323 322 320 318 319 318 312 305 298 292 288 293 296 292 286 286 283 283 281 284 279 278
172 179 178 168 144 177 267 300 307 306 320 352 359 348 354 343 338 333 327 323 322 320 317 314 314 315 315 315 317 308 298 292 294 292 285 283 279 280 282 281 278 280 278
170 174 187 189 210 257 235 6 334 340 342 345 339 358 343 341 336 335 330 331 337 337 340 344 334 326 323 321 316 302 293 288 292 289 309 310 318 318 302 281 281 280 279
178 182 164 166 155 143 119 49 48 14 359 356 335 336 330 329 331 335 343 347 338 331 335 336 335 326 315 325 318 310 303 305 278 284 301 308 306 309 310 310 318 303 281
168 152 133 122 115 105 81 21 350 339 341 342 339 334 332 335 344 349 344 342 338 335 334 330 327 324 313 311 308 285 309 293 320 298 292 294 304 311 310 309 318 323 314
107 114 104 95 81 59 44 29 29 14 356 341 335 334 338 345 342 342 337 334 333 330 328 324 316 312 303 300 301 288 276 280 296 306 298 296 298 304 325 328 328 325 322
111 104 94 84 73 56 44 32 19 7 351 340 345 342 349 334 330 331 328 330 327 324 321 314 310 307 299 290 288 291 292 286 278 275 289 295 301 303 310 315 319 311 326
105 99 94 89 74 60 43 27 19 6 355 355 1 351 347 340 339 335 330 325 324 317 316 309 303 297 292 285 279 275 278 279 284 286 287 290 296 302 310 317 306 305 345